Find Starlink 30271

NORAD ID: 57669 Int'l Des: 2023-124 Owner: SPXS Country: US Constellation: starlink operational
LEOCIRCULAR

リアルタイム位置

3D地球を読み込み中...

Starlink 30271について

説明を読み込み中...

次回通過

Passes for default location (London). Set your location on the main map for personalized predictions.

高度履歴

Loading altitude history...

軌道要素

1 57669U 23124G 26126.76620848 -.00000229 00000-0 43872-5 0 9996
2 57669 53.1619 297.1698 0001046 77.6148 282.4971 15.31702111152458
Epoch: May 6, 2026 • Age: 7 hours

現在のステータス

高度 472.3 km
速度 7.63 km/s
衛星直下点 31.51°N, 155.12°W
打ち上げ日 Aug 22, 2023
運用期間 2.7 years
タイプ internet

技術仕様

分類 Payload
質量 730.00 kg
乾燥質量 700.00 kg
総質量 730.00 kg
長さ 0.30 m
直径 4.10 m
スパン 29.00 m
形状 Box + pan
製造者 SPXS
バスタイプ Starlink V2M
フェーズステータス In Orbit
所有者/国 SPXS/US

Most Searched